Weather History for KN60 - April, 2012

Change the Weather History Date:

Saturday, April 7, 2012

  Actual Average Record
Temperature  
Mean Temperature 43 °F -  
Max Temperature 50 °F 45 °F 75 °F (2005)
Min Temperature 35 °F 24 °F 5 °F (2007)
Degree Days  
Heating Degree Days 22    
Month to date heating degree days 107  
Moisture  
Dew Point 27 °F    
Average Humidity 61    
Maximum Humidity 92    
Minimum Humidity 29    
Precipitation  
Precipitation 0.00 in - - ()
Month to date precipitation 0.30  
Year to date precipitation 1.40  
Sea Level Pressure  
Sea Level Pressure 30.01 in    
Wind  
Wind Speed 26 mph (WNW)    
Max Wind Speed 39 mph    
Max Gust Speed 54 mph    
Averages and records for this station are not official NWS values.
T = Trace of Precipitation, MM = Missing Value Source: NWS Daily Summary

Daily Weather History Graph

Daily Weather History Graph

Search for Another Location

Airport or City:

Trip Planner

Search our weather history database for the weather conditions in past years. The results will help you decide how hot, cold, wet, or windy it might be!

Date:

Astronomy

Apr. 07, 2012 Rise Set
Actual Time 7:11 AM CDT 8:24 PM CDT
Civil Twilight 6:39 AM CDT 8:56 PM CDT
Nautical Twilight 6:01 AM CDT 9:35 PM CDT
Astronomical Twilight 5:20 AM CDT 10:16 PM CDT
Moon 10:12 PM CDT (4/7) 7:17 AM CDT (4/7)
Length of Visible Light 14h 17m
Length of Day
13h 13m
Full, 99% of the Moon is Illuminated
Apr 7
Full
Apr 13
Last Quarter
Apr 21
New
Apr 29
First Quarter
May 5
Full

Hourly Weather History & Observations

Time (CDT) Temp. Windchill Dew Point Humidity Pressure Visibility Wind Dir Wind Speed Gust Speed Precip Events Conditions
12:52 AM 44.1 °F 36.5 °F 41.0 °F 89% 29.77 in - West 17.3 mph 24.2 mph N/A   Unknown
1:52 AM 39.9 °F 30.8 °F 37.9 °F 93% 29.80 in - West 18.4 mph 25.3 mph N/A   Unknown
2:52 AM 37.0 °F 25.9 °F 33.1 °F 86% 29.82 in - West 23.0 mph 31.1 mph N/A   Unknown
3:52 AM 36.0 °F 26.0 °F 32.0 °F 86% 29.84 in - West 17.3 mph 31.1 mph N/A   Unknown
4:52 AM 35.1 °F 24.8 °F 33.1 °F 92% 29.86 in - West 17.3 mph 25.3 mph N/A   Unknown
5:52 AM 35.1 °F 24.1 °F 34.0 °F 96% 29.89 in - West 19.6 mph 31.1 mph N/A   Unknown
6:52 AM 36.0 °F 24.2 °F 30.9 °F 82% 29.92 in - WNW 24.2 mph 38.0 mph N/A   Unknown
7:52 AM 36.0 °F 25.0 °F 30.9 °F 82% 29.95 in - WNW 20.7 mph 33.4 mph N/A   Unknown
8:52 AM 37.0 °F 26.2 °F 30.9 °F 79% 29.98 in - West 21.9 mph 29.9 mph N/A   Unknown
9:52 AM 37.9 °F 26.6 °F 28.9 °F 70% 30.00 in - West 25.3 mph 36.8 mph N/A   Unknown
10:52 AM 39.9 °F 28.6 °F 28.0 °F 63% 30.02 in - WNW 28.8 mph 44.9 mph N/A   Unknown
11:52 AM 42.1 °F 31.1 °F 24.1 °F 49% 30.03 in - WNW 31.1 mph 44.9 mph N/A   Unknown
12:52 PM 42.1 °F 30.8 °F 21.9 °F 45% 30.05 in - WNW 33.4 mph 48.3 mph N/A   Unknown
1:52 PM 44.1 °F 33.8 °F 21.9 °F 42% 30.08 in - WNW 31.1 mph 51.8 mph N/A   Unknown
2:52 PM 44.1 °F 33.8 °F 23.0 °F 43% 30.09 in - WNW 31.1 mph 44.9 mph N/A   Unknown
3:52 PM 46.9 °F - 18.0 °F 32% 30.09 in - WNW 36.8 mph 46.0 mph N/A   Unknown
4:52 PM 48.9 °F - 18.0 °F 29% 30.08 in - WNW 27.6 mph 54.1 mph N/A   Unknown
5:52 PM 48.9 °F - 17.1 °F 28% 30.10 in - WNW 32.2 mph 48.3 mph N/A   Unknown
6:52 PM 48.0 °F - 19.9 °F 33% 30.12 in - WNW 29.9 mph 36.8 mph N/A   Unknown
7:52 PM 45.0 °F 37.6 °F 21.0 °F 39% 30.12 in - NW 17.3 mph 26.5 mph N/A   Unknown
8:52 PM 39.0 °F 34.0 °F 21.9 °F 50% 30.14 in - WNW 6.9 mph - N/A   Unknown
9:52 PM 37.0 °F 31.6 °F 23.0 °F 57% 30.16 in - WNW 6.9 mph - N/A   Unknown
10:52 PM 33.1 °F 26.1 °F 23.0 °F 66% 30.17 in - West 8.1 mph - N/A   Unknown
11:52 PM 35.1 °F 27.9 °F 24.1 °F 64% 30.17 in - West 9.2 mph - N/A   Unknown